(2020 SN6) |
Classification: Apollo [NEO] SPK-ID: 54054709 |
[ hide orbit diagram ]
For accurate long-term ephemerides, please instead use our Horizons system.This orbit viewer was implemented using two-body methods, and hence should not be used for determining accurate long-term trajectories (over several years or decades) or planetary encounter circumstances.
Orbital Elements at Epoch 2459000.5 (2020-May-31.0) TDB
Reference: JPL 2 (heliocentric ecliptic J2000)
Element | Value | Uncertainty (1-sigma) | Units |
e | .2161828995147963 | 0.00036096 | |
a | 1.121489954414102 | 0.00031177 | au |
q | .8790430042921444 | 0.00016055 | au |
i | .03529650227005721 | 6.019e-05 | deg |
node | 131.3636076105238 | 0.042331 | deg |
peri | 309.5913757676709 | 0.042613 | deg |
M | 207.7020412100389 | 0.079868 | deg |
tp | 2459184.019868957881 (2020-Nov-30.51986896) | 0.019722 | TDB |
period | 433.8019586720284 1.19 | 0.18089 0.0004952 | d yr |
n | .8298717716767489 | 0.00034605 | deg/d |
Q | 1.363936904536059 | 0.00037917 | au |
|
| | Orbit Determination Parameters
Additional Information
|
[ hide covariance matrix ]
Orbital Elements at Epoch 2459120.5 (2020-Sep-28.0) TDB
Reference: JPL 2 (heliocentric ecliptic J2000)
Element | Value | Uncertainty (1-sigma) | Units |
e | .2171508755137431 | 0.00035755 | |
q | .8777506326545451 | 0.00015573 | au |
tp | 2459184.096689486169 (2020-Nov-30.59668949) | 0.020208 | TDB |
node | 129.7936014344248 | 0.043503 | deg |
peri | 311.3746087152535 | 0.044242 | deg |
i | .0345979545800073 | 6.2559e-05 | deg |
|
| | Orbit Determination Parameters
Additional Information
|
Orbit Covariance (6×6)
|
|
e |
q |
tp |
node |
peri |
i |
e |
1.278424907776928E-7 |
-5.565892765959599E-8 |
-7.216630242294686E-6 |
2.596539316627943E-7 |
-1.35629095842003E-6 |
2.143840827558225E-8 |
q |
-5.565892765959599E-8 |
2.425310656566272E-8 |
3.137349315926598E-6 |
-3.767615574067157E-8 |
5.083688280566757E-7 |
-9.301792452802589E-9 |
tp |
-7.216630242294686E-6 |
3.137349315926598E-6 |
.0004083747508180028 |
-3.115488734881352E-5 |
9.453947150713444E-5 |
-1.217159422554406E-6 |
node |
2.596539316627943E-7 |
-3.767615574067157E-8 |
-3.115488734881352E-5 |
.001892486933571686 |
-.001919132035037764 |
8.191835455699073E-7 |
peri |
-1.35629095842003E-6 |
5.083688280566757E-7 |
9.453947150713444E-5 |
-.001919132035037764 |
.001957373971666781 |
-1.013406343352127E-6 |
i |
2.143840827558225E-8 |
-9.301792452802589E-9 |
-1.217159422554406E-6 |
8.191835455699073E-7 |
-1.013406343352127E-6 |
3.913671465339533E-9 |
|
Physical Parameter Table
Parameter |
Symbol |
Value |
Units |
Sigma |
Reference |
Notes |
absolute magnitude |
H |
28.8 |
|
.46714 |
E2020-SP3 |
autocmod 2.8 |
|
[ show close-approach data ]
|